CAPE
0 0 1 1 0 0 0 15 0 0 0 0 0 0 0 0 0 0 0 0 0 0 0 0 0 44 370 369 336 262 284 352 212 11 0 0 0 0 0 0 0 0 7 17 87 52 3 9 32
0 0 0 0 0 10 0 0 0 0 0 0 0 0 0 0 0 0 0 0 0 0 0 0 0 0 0 306 623 658 641 411 252 96 23 20 12 0 0 0 0 0 2 9 53 126 65 0 44
0 0 0 16 28 22 2 0 0 0 0 0 0 0 0 0 0 0 0 0 0 0 0 0 0 0 64 533 870 748 311 0 0 0 5 40 44 38 15 6 0 1 3 16 15 58 177 26 24
0 0 0 0 0 0 0 0 0 0 0 0 0 0 0 0 0 0 0 0 0 0 0 0 0 0 0 452 1118 948 169 0 0 0 0 0 25 56 62 59 31 3 10 21 24 9 64 132 19
0 0 0 21 34 23 0 1 0 0 0 0 0 0 0 0 0 0 0 0 0 0 0 0 0 0 0 1 420 542 168 41 52 5 7 27 30 37 46 44 68 49 11 17 15 82 56 85 114
0 0 0 22 25 6 3 0 0 0 0 0 0 0 0 0 0 0 0 0 0 0 0 0 0 0 0 0 0 0 0 0 0 0 0 31 28 14 3 23 66 81 48 19 26 0 20 63 62
0 0 4 11 26 10 2 0 0 0 0 0 0 0 0 0 0 0 0 0 0 0 0 0 0 0 0 0 0 0 0 0 0 0 0 0 0 8 9 4 60 94 91 28 30 1 0 23 56
0 0 0 1 25 24 1 0 0 0 0 0 0 0 0 0 0 0 0 0 0 0 0 0 0 0 0 0 0 0 0 0 0 0 0 5 11 28 42 56 49 105 130 23 10 0 0 0 112
0 0 0 0 3 10 1 1 0 0 0 0 0 0 0 0 0 0 0 0 0 0 0 0 0 0 0 0 4 1 8 1 0 0 1 6 6 13 15 87 80 93 155 27 88 80 0 0 153
0 0 0 0 0 0 0 5 9 2 0 0 0 0 0 0 0 0 0 0 0 0 0 0 0 0 0 0 10 28 29 15 13 2 5 8 9 11 16 33 46 112 204 136 62 71 15 6 4
0 0 0 0 0 0 0 0 0 0 0 0 0 0 0 0 0 0 0 0 0 0 0 0 0 0 1 3 10 16 39 31 8 13 5 7 22 14 31 54 16 1 74 195 101 61 0 0 2
0 0 0 0 0 0 0 0 0 0 0 0 0 0 0 0 0 0 0 0 0 0 0 0 0 2 11 8 11 22 13 25 31 11 9 14 18 4 19 65 51 28 34 152 211 103 4 0 17
0 0 0 0 0 0 0 0 0 0 0 0 0 0 0 0 0 0 0 0 0 0 0 0 0 6 8 5 19 20 18 22 50 33 39 32 40 41 44 32 44 23 75 203 194 160 13 15 133
0 0 0 0 0 0 0 0 0 0 0 0 0 0 0 0 0 0 0 0 0 0 0 0 0 1 6 15 46 13 19 31 59 43 17 62 132 261 247 168 101 70 80 191 186 181 124 76 105
0 0 0 0 0 0 0 0 0 0 0 0 0 0 0 0 0 0 0 0 0 0 0 0 0 1 12 20 52 41 35 66 114 54 139 108 169 402 350 353 300 240 50 132 210 164 154 125 318
0 0 0 0 0 0 0 0 4 0 0 0 0 0 0 0 0 0 0 0 0 0 0 0 0 2 7 23 35 67 66 113 130 115 116 128 188 284 482 521 498 454 389 371 292 196 189 283 332
0 0 0 0 0 0 0 0 0 0 0 0 0 0 0 0 0 0 0 0 0 0 0 0 0 4 0 22 97 63 165 237 331 401 81 323 256 227 381 509 607 539 435 387 328 185 200 244 244
0 2 1 0 19 1 0 0 0 0 0 0 0 0 0 0 0 0 0 0 0 0 0 0 0 17 0 83 171 55 234 293 101 187 15 55 312 356 422 620 470 666 606 657 505 241 272 287 175
0 18 25 43 17 8 2 0 0 0 0 0 0 0 0 0 0 0 0 0 0 0 0 0 0 10 17 77 56 49 34 12 59 12 45 49 165 234 494 595 587 572 611 644 613 411 372 279 402
0 3 0 15 22 5 8 0 0 0 0 0 0 0 0 0 0 0 0 0 0 0 0 0 2 13 216 566 409 220 90 37 161 130 101 96 132 300 497 581 502 513 546 530 584 578 459 490 382
0 0 0 12 37 30 4 0 0 5 0 0 0 0 0 0 0 0 0 0 0 0 0 0 25 219 380 385 365 584 394 355 249 39 53 160 176 192 438 483 604 516 418 423 549 546 487 326 413
0 0 0 2 8 23 10 0 0 0 0 0 0 0 0 14 0 0 0 0 0 0 0 0 51 195 315 219 111 430 368 89 259 149 6 120 256 299 375 388 405 651 683 627 606 590 370 233 342
0 0 0 4 0 1 0 0 1 5 0 0 0 0 28 27 0 0 0 0 0 0 0 0 47 66 356 178 17 224 77 169 296 236 0 45 188 247 340 412 565 575 721 736 702 515 376 347 321
0 0 0 7 4 0 0 1 0 8 3 0 0 5 58 39 0 0 0 0 0 0 0 0 19 0 202 208 1 67 115 20 21 118 17 81 147 343 388 471 576 668 704 705 601 605 415 417 636
0 0 0 0 3 0 1 0 0 0 0 0 0 23 179 45 0 0 0 0 0 0 0 0 0 0 0 35 0 3 35 25 21 102 16 20 127 136 261 389 479 509 488 608 595 544 570 619 704
0 0 0 1 12 39 5 0 1 0 0 0 1 217 251 41 0 0 0 0 0 0 0 0 0 0 0 0 0 0 48 256 33 93 78 49 129 110 166 242 351 443 438 501 599 601 666 763 508
0 0 0 0 0 1 28 19 0 0 0 3 60 167 155 7 0 0 0 0 0 0 0 0 0 0 0 0 0 0 21 106 16 8 23 51 151 216 208 243 174 196 384 621 760 641 669 589 487
0 0 0 0 0 8 41 35 28 0 3 73 178 181 61 0 0 0 0 0 0 0 0 0 0 0 0 0 0 0 3 123 165 74 21 1 13 49 108 266 170 251 434 509 601 429 481 383 305
0 0 0 0 0 7 35 47 6 0 0 18 240 198 26 0 0 0 0 0 0 0 0 0 0 0 0 0 0 0 0 1 0 27 26 119 105 8 18 16 42 35 170 346 296 180 179 196 63
0 0 0 0 0 1 31 83 0 0 0 22 205 202 32 0 0 0 0 0 0 0 0 0 0 0 0 0 0 0 0 0 4 39 137 133 194 114 0 4 3 0 154 202 199 19 47 19 1
CIN
-0 -0 -97 -101 -0 -0 -0 -12 -0 -0 -0 -0 -0 -0 -0 -0 -0 -0 -0 -0 -0 -0 -0 -0 -0 -96 -69 -47 -30 -49 -49 -22 -47 -2 -0 -0 -0 -0 -0 -0 -0 -0 -0 -29 -31 -100 -0 -30 -60
-0 -0 -0 -0 -0 -8 -10 -7 -0 -0 -0 -0 -0 -0 -0 -0 -0 -0 -0 -0 -0 -0 -0 -0 -0 -0 -0 -43 -18 -10 -1 -8 -45 -0 -0 -0 -0 -0 -0 -0 -0 -0 -0 -0 -72 -23 -70 -0 -34
-0 -0 -0 -6 -7 -7 -6 -0 -0 -0 -0 -0 -0 -0 -0 -0 -0 -0 -0 -0 -0 -0 -0 -0 -0 -0 -60 -16 -7 -5 -19 -0 -0 -0 -0 -0 -0 -0 -1 -18 -0 -0 -0 -0 -0 -98 -15 -107 -54
-0 -0 -0 -0 -0 -0 -0 -0 -0 -0 -0 -0 -0 -0 -0 -0 -0 -0 -0 -0 -0 -0 -0 -0 -0 -0 -0 -21 -0 -1 -23 -0 -0 -0 -0 -0 -0 -0 -1 -0 -1 -0 -0 -0 -0 -0 -111 -31 -99
-0 -0 -0 -5 -5 -9 -0 -4 -0 -0 -0 -0 -0 -0 -0 -0 -0 -0 -0 -0 -0 -0 -0 -0 -0 -0 -0 -1 -4 -0 -4 -5 -5 -1 -1 -2 -0 -0 -0 -0 -1 -0 -0 -0 -0 -85 -105 -73 -25
-0 -0 -0 -7 -10 -34 -9 -0 -0 -0 -0 -0 -0 -0 -0 -0 -0 -0 -0 -0 -0 -0 -0 -0 -0 -0 -0 -0 -0 -0 -0 -0 -0 -0 -0 -5 -6 -2 -2 -1 -0 -0 -0 -0 -1 -0 -86 -104 -83
-0 -0 -2 -5 -8 -6 -7 -0 -0 -0 -0 -0 -0 -0 -0 -0 -0 -0 -0 -0 -0 -0 -0 -0 -0 -0 -0 -0 -0 -0 -0 -0 -0 -0 -0 -0 -0 -47 -0 -0 -0 -0 -3 -0 -1 -0 -0 -70 -99
-0 -0 -0 -2 -7 -4 -10 -0 -0 -0 -0 -0 -0 -0 -0 -0 -0 -0 -0 -0 -0 -0 -0 -0 -0 -0 -0 -0 -0 -0 -0 -0 -0 -0 -0 -0 -0 -91 -43 -11 -0 -1 -0 -3 -0 -0 -0 -0 -42
-0 -0 -0 -4 -7 -5 -10 -8 -9 -0 -0 -0 -0 -0 -0 -0 -0 -0 -0 -0 -0 -0 -0 -0 -0 -0 -0 -0 -1 -2 -1 -1 -0 -0 -1 -1 -1 -1 -1 -2 -1 -6 -3 -4 -0 -0 -0 -0 -11
-0 -0 -0 -0 -0 -0 -2 -7 -3 -4 -0 -0 -0 -0 -0 -0 -0 -0 -0 -0 -0 -0 -0 -0 -0 -0 -0 -0 -1 -2 -3 -5 -1 -1 -0 -1 -0 -0 -1 -43 -16 -2 -0 -1 -5 -1 -3 -1 -1
-0 -0 -0 -0 -0 -0 -0 -0 -0 -0 -0 -1 -0 -0 -0 -0 -0 -0 -0 -0 -0 -0 -0 -0 -0 -0 -1 -1 -2 -1 -2 -1 -4 -1 -10 -2 -26 -18 -56 -45 -1 -0 -6 -0 -1 -1 -0 -0 -1
-0 -0 -0 -0 -0 -0 -0 -0 -0 -0 -0 -0 -0 -0 -0 -0 -0 -0 -0 -0 -0 -0 -0 -0 -0 -1 -1 -1 -1 -1 -2 -2 -0 -6 -9 -1 -1 -7 -61 -45 -82 -1 -1 -1 -1 -2 -2 -0 -1
-0 -0 -0 -0 -0 -0 -0 -0 -0 -0 -0 -0 -0 -0 -0 -0 -0 -0 -0 -0 -0 -0 -0 -0 -0 -1 -1 -1 -3 -2 -5 -5 -1 -1 -0 -3 -2 -2 -12 -81 -113 -5 -21 -6 -4 -11 -3 -1 -22
-0 -0 -0 -0 -0 -0 -0 -0 -0 -0 -0 -0 -0 -0 -0 -0 -0 -0 -0 -0 -0 -0 -0 -0 -0 -1 -0 -6 -3 -8 -5 -12 -2 -1 -1 -4 -2 -0 -0 -1 -20 -59 -18 -2 -5 -1 -1 -2 -2
-0 -0 -0 -0 -0 -0 -0 -0 -0 -0 -0 -0 -0 -0 -0 -0 -0 -0 -0 -0 -0 -0 -0 -0 -0 -0 -1 -1 -3 -0 -7 -3 -1 -0 -1 -0 -1 -0 -0 -0 -0 -3 -25 -9 -4 -12 -3 -4 -1
-0 -0 -0 -0 -0 -0 -0 -0 -9 -0 -0 -0 -0 -0 -0 -0 -0 -0 -0 -0 -0 -0 -0 -0 -0 -1 -1 -1 -1 -68 -4 -1 -0 -1 -1 -1 -1 -1 -0 -0 -0 -0 -5 -4 -1 -4 -4 -6 -2
-0 -0 -0 -0 -0 -0 -0 -0 -0 -0 -0 -0 -0 -0 -0 -0 -0 -0 -0 -0 -0 -0 -0 -0 -0 -0 -18 -1 -47 -44 -1 -1 -0 -0 -24 -2 -1 -1 -2 -3 -2 -2 -1 -1 -3 -1 -3 -3 -2
-0 -3 -2 -0 -14 -7 -0 -0 -5 -1 -0 -0 -0 -0 -0 -0 -0 -0 -0 -0 -0 -0 -0 -0 -0 -128 -0 -30 -3 -51 -0 -0 -2 -1 -35 -21 -6 -0 -6 -1 -5 -0 -2 -1 -4 -4 -5 -3 -2
-0 -6 -4 -6 -13 -6 -4 -0 -0 -0 -0 -0 -0 -0 -0 -0 -0 -0 -0 -0 -0 -0 -0 -0 -0 -193 -109 -18 -21 -17 -19 -1 -1 -8 -0 -2 -0 -30 -0 -1 -0 -3 -1 -0 -1 -3 -3 -5 -5
-0 -4 -0 -5 -8 -6 -3 -0 -0 -0 -0 -0 -0 -0 -0 -0 -0 -0 -0 -0 -0 -0 -0 -0 -95 -97 -9 -1 -0 -1 -3 -2 -1 -0 -1 -1 -1 -0 -0 -0 -0 -0 -1 -1 -1 -3 -2 -2 -1
-0 -0 -0 -3 -7 -4 -3 -0 -0 -3 -0 -0 -0 -0 -0 -0 -0 -0 -0 -0 -0 -0 -0 -0 -155 -25 -1 -1 -2 -0 -0 -0 -0 -5 -4 -0 -0 -1 -0 -1 -0 -1 -3 -10 -8 -4 -2 -1 -1
-0 -0 -0 -4 -4 -4 -2 -0 -1 -0 -0 -0 -0 -0 -0 -142 -0 -0 -0 -0 -0 -0 -0 -0 -107 -23 -1 -11 -3 -0 -1 -2 -0 -9 -32 -3 -15 -0 -2 -3 -2 -0 -1 -1 -8 -6 -5 -3 -0
-0 -0 -1 -5 -0 -3 -2 -0 -9 -4 -0 -0 -0 -0 -78 -116 -0 -0 -0 -0 -0 -0 -0 -0 -109 -69 -0 -2 -15 -2 -31 -2 -1 -0 -3 -14 -0 -1 -9 -2 -0 -1 -1 -0 -0 -5 -8 -5 -1
-0 -0 -1 -4 -6 -0 -0 -3 -0 -6 -5 -1 -0 -4 -44 -125 -0 -0 -0 -0 -0 -0 -0 -0 -95 -0 -5 -1 -1 -21 -14 -11 -11 -5 -18 -10 -4 -0 -0 -0 -0 -0 -0 -0 -1 -1 -6 -1 -3
-0 -1 -0 -0 -4 -0 -2 -0 -1 -0 -0 -0 -0 -24 -31 -142 -0 -0 -0 -0 -0 -0 -0 -0 -0 -0 -0 -23 -0 -1 -30 -24 -6 -8 -11 -25 -2 -3 -0 -0 -1 -1 -4 -1 -2 -7 -2 -1 -4
-0 -0 -0 -2 -6 -5 -8 -0 -4 -0 -0 -0 -2 -24 -46 -170 -0 -0 -0 -0 -0 -0 -0 -0 -0 -0 -0 -0 -0 -0 -9 -1 -27 -29 -48 -12 -1 -2 -4 -12 -0 -0 -1 -2 -0 -2 -3 -2 -7
-0 -0 -0 -0 -0 -2 -12 -8 -1 -0 -0 -5 -3 -43 -87 -178 -0 -0 -0 -0 -0 -0 -0 -0 -0 -0 -0 -0 -0 -0 -15 -3 -25 -21 -23 -18 -2 -1 -1 -0 -1 -0 -0 -0 -0 -1 -1 -3 -4
-0 -0 -0 -0 -0 -5 -7 -5 -4 -0 -4 -5 -7 -41 -113 -0 -0 -0 -0 -0 -0 -0 -0 -0 -0 -0 -0 -0 -0 -0 -1 -3 -12 -29 -74 -42 -64 -45 -20 -1 -4 -1 -1 -0 -0 -0 -0 -0 -0
-0 -0 -0 -1 -0 -5 -5 -6 -22 -1 -0 -8 -3 -27 -108 -0 -0 -0 -0 -0 -0 -0 -0 -0 -0 -0 -0 -0 -0 -0 -0 -23 -6 -29 -42 -32 -37 -53 -57 -36 -22 -40 -0 -1 -0 -6 -1 -0 -19
-0 -0 -0 -0 -0 -2 -7 -7 -0 -0 -0 -3 -2 -9 -78 -0 -0 -0 -0 -0 -0 -0 -0 -0 -0 -0 -0 -0 -0 -0 -0 -0 -10 -28 -13 -44 -23 -7 -0 -33 -85 -2 -5 -1 -6 -25 -5 -17 -2
Wind_Speed
14 14 11 9 13 11 15 16 17 20 17 15 20 22 26 26 24 23 15 15 16 16 15 13 11 11 12 12 12 13 15 15 16 17 17 18 22 26 28 28 28 27 25 24 26 27 25 25 26
13 11 11 12 16 15 19 18 22 23 21 19 18 18 20 21 21 20 16 14 14 16 16 18 12 13 13 13 14 15 15 16 18 18 19 20 22 26 28 29 29 29 27 26 26 25 26 25 25
9 10 15 12 14 19 24 22 24 23 20 17 17 19 21 21 19 20 18 15 15 16 16 16 16 17 16 14 14 15 16 20 22 23 23 25 26 28 30 30 30 29 29 28 26 26 26 24 24
10 10 11 16 21 18 19 25 26 24 16 17 21 23 17 18 17 17 16 15 16 17 19 17 18 19 17 16 16 17 20 23 25 26 26 27 29 31 32 32 31 30 30 29 29 28 26 26 25
7 13 18 18 18 21 18 22 24 23 21 17 17 22 22 15 16 16 16 16 17 20 22 22 21 20 19 19 20 21 23 23 23 24 25 27 29 31 33 33 32 31 30 30 29 29 28 26 27
11 10 22 22 21 14 18 20 23 23 22 18 21 23 22 13 15 14 15 16 19 21 21 21 20 19 20 21 21 22 23 23 23 23 24 26 28 30 31 34 34 31 30 26 27 30 29 28 27
13 20 25 27 27 23 20 19 24 25 25 22 20 25 19 14 13 14 15 16 18 19 19 19 21 20 18 18 19 21 21 22 23 24 24 25 27 30 32 31 32 31 28 26 27 30 30 29 28
8 22 28 24 24 22 21 19 22 20 24 21 20 21 24 14 13 13 14 14 17 16 20 22 20 23 22 21 17 19 20 20 21 21 21 20 20 22 26 31 33 28 26 27 28 30 31 30 29
11 26 26 24 26 25 23 23 20 17 22 16 19 20 20 13 11 12 13 15 17 21 20 21 23 23 22 21 19 19 16 15 17 16 14 16 16 18 22 25 28 26 24 23 25 26 30 31 30
12 21 21 26 27 26 27 30 29 20 15 14 16 15 16 12 11 11 12 16 20 23 24 22 22 22 22 20 19 18 17 17 18 16 16 16 17 18 19 25 21 24 24 24 23 25 29 31 30
10 15 17 25 22 21 28 24 19 17 18 21 19 18 10 10 9 10 12 17 21 23 23 24 21 22 21 22 21 18 16 19 16 14 12 11 14 15 14 19 18 22 22 25 23 25 28 32 30
14 8 13 8 11 17 16 19 19 19 20 22 19 17 9 8 7 8 11 13 17 23 22 21 22 22 20 21 20 17 18 13 12 12 7 8 12 12 8 18 22 19 23 21 24 29 25 31 31
10 8 8 13 10 12 11 14 13 17 21 18 16 11 9 6 6 5 8 11 16 21 22 21 23 22 21 20 14 16 12 8 10 9 10 8 9 12 10 13 24 19 18 17 24 29 28 29 24
9 10 16 19 10 12 11 11 13 13 15 14 14 13 9 4 3 5 7 10 15 19 21 21 23 21 21 17 13 11 9 7 8 11 11 8 7 7 11 16 16 13 11 19 23 27 26 27 24
14 23 21 15 14 12 11 14 14 8 10 16 8 4 3 3 2 2 6 10 15 18 20 21 21 21 20 15 12 11 8 8 8 10 10 8 7 8 9 12 11 7 25 28 25 27 28 21 27
17 15 22 15 11 8 11 18 15 12 14 18 7 4 4 1 2 3 7 9 13 17 19 20 21 20 22 15 13 11 8 10 9 9 6 6 7 8 9 11 8 14 17 28 22 23 22 25 25
11 18 16 17 4 8 8 17 22 21 24 23 11 7 4 2 1 3 5 8 12 16 17 20 20 19 21 13 12 12 11 10 11 8 7 8 13 12 10 13 14 7 15 24 27 23 23 25 23
16 13 11 14 6 8 11 13 10 15 20 14 7 8 4 1 0 2 4 7 11 15 16 18 18 19 19 16 14 14 13 13 14 11 8 9 12 16 15 17 20 19 18 21 26 24 21 23 23
16 16 13 12 14 10 17 14 10 25 20 16 10 11 7 2 1 2 4 6 10 14 15 17 18 19 18 23 22 21 20 18 18 14 8 11 13 15 17 17 15 18 19 21 21 22 22 22 15
13 10 14 19 16 15 33 26 27 19 15 14 9 11 8 1 1 3 4 5 9 13 14 16 17 18 18 22 19 19 19 21 24 19 18 18 17 14 17 21 23 22 20 16 18 19 20 18 16
17 12 10 11 23 10 17 22 7 14 17 11 10 12 7 1 2 2 4 5 8 11 13 15 16 18 21 20 20 18 16 17 20 23 25 19 17 17 18 21 22 24 21 24 18 18 15 15 17
15 9 9 32 12 9 7 10 19 6 12 10 8 7 6 4 4 5 6 6 8 10 12 14 16 17 19 22 19 20 20 18 19 20 19 22 19 18 16 21 20 20 22 25 25 23 17 14 15
13 10 12 6 9 16 13 9 13 11 8 10 14 14 7 5 5 7 8 8 8 10 12 13 15 16 18 21 19 25 24 20 16 19 18 25 22 19 19 13 20 21 20 21 19 18 19 16 12
10 10 27 21 6 16 10 5 9 12 11 12 16 12 10 5 6 8 9 9 9 10 11 12 14 15 16 19 20 21 22 22 19 19 20 24 18 20 21 9 8 10 11 11 11 12 13 16 17
21 8 15 15 12 10 5 2 12 15 13 12 16 18 11 7 8 11 11 10 11 11 12 13 14 15 15 18 20 20 19 24 22 20 20 19 18 6 14 24 7 6 5 5 8 10 14 18 18
15 13 16 5 5 4 5 8 14 9 13 11 12 17 10 7 12 13 12 12 12 12 12 13 14 14 15 17 20 21 25 25 25 27 23 20 12 5 10 7 10 7 12 4 5 6 13 16 16
13 25 21 27 31 19 7 7 8 8 8 8 11 14 10 12 14 13 13 14 14 13 12 13 14 14 15 16 18 21 24 27 27 24 24 26 20 21 8 3 16 6 10 7 9 10 11 12 14
19 9 16 20 12 7 5 5 7 7 7 12 11 11 11 13 13 13 14 14 15 14 13 14 14 14 15 15 17 19 21 22 24 22 23 24 8 15 7 7 15 6 12 23 15 16 12 11 12
19 26 12 21 9 5 8 6 7 7 8 10 11 11 11 12 13 12 14 15 15 14 15 15 15 15 15 15 16 19 20 22 23 24 23 24 27 22 5 12 24 23 20 21 29 24 10 14 17
20 22 16 10 11 9 11 11 9 7 6 8 10 11 12 11 12 13 15 15 16 15 15 16 16 16 16 17 16 19 19 20 22 24 25 26 28 28 12 26 16 27 18 19 26 26 24 28 25
Wind_Direction
88 96 86 58 360 2 345 344 351 344 353 348 339 336 331 333 338 338 7 5 357 357 357 359 2 354 345 338 335 333 332 331 330 328 324 322 322 319 312 308 304 300 298 294 289 282 283 281 275
81 66 53 11 341 334 351 344 342 341 340 341 340 343 342 340 348 350 358 10 5 359 354 349 358 352 346 339 334 333 332 330 328 324 321 318 316 313 310 305 300 295 292 290 287 285 280 279 276
65 59 358 338 327 323 322 345 338 340 337 339 345 341 341 343 350 349 3 6 4 357 355 356 354 350 345 341 337 333 330 327 324 321 316 313 310 307 303 301 297 294 287 283 282 281 280 279 275
51 27 6 341 328 341 341 326 332 333 345 337 333 336 349 2 357 5 7 3 359 356 353 357 354 349 347 343 337 332 328 324 321 318 315 311 307 302 299 296 292 290 284 279 276 275 278 276 272
50 0 335 324 331 332 342 336 333 332 334 342 343 336 338 2 9 9 5 2 356 349 348 349 354 352 349 344 340 334 330 327 323 320 316 313 309 303 299 293 289 284 281 275 272 271 270 275 268
350 354 327 324 338 349 347 341 332 330 331 338 332 332 338 15 10 8 5 1 354 350 355 356 358 358 355 348 342 337 334 330 327 324 319 314 308 304 299 291 284 281 278 276 270 265 266 267 267
329 324 315 317 320 325 336 341 328 325 326 331 342 329 342 353 13 7 2 2 358 359 1 2 357 354 352 352 349 344 338 334 330 325 320 315 309 303 295 291 284 278 274 273 267 262 262 263 264
329 318 312 316 319 322 327 337 329 333 333 335 339 336 338 358 12 6 4 8 1 8 3 360 359 353 353 351 353 348 344 340 339 334 328 325 319 312 300 289 279 275 272 269 264 260 258 258 258
333 308 308 313 316 319 323 326 340 337 330 335 338 339 346 9 10 6 7 1 1 359 3 2 357 355 355 352 350 350 350 351 346 349 349 344 337 329 313 297 281 271 267 264 263 259 255 253 253
307 305 310 315 316 318 318 317 319 332 341 337 335 340 355 8 6 1 1 360 358 358 358 2 0 358 357 356 354 352 351 352 352 356 353 346 339 332 319 298 289 273 263 259 260 258 253 247 248
286 301 314 315 322 327 321 324 336 337 337 340 339 343 354 5 10 6 3 0 358 1 2 1 3 2 360 358 356 357 3 357 358 359 3 358 349 345 335 308 292 270 261 255 254 256 249 240 241
284 258 307 306 318 326 332 338 336 336 331 334 337 345 5 11 15 16 7 12 10 2 6 7 5 2 4 1 360 5 1 11 8 9 20 12 4 4 6 312 286 273 253 252 250 246 247 238 237
257 258 255 311 313 324 332 333 339 344 334 339 344 359 1 9 11 33 26 21 8 6 7 8 5 6 6 6 11 11 17 26 28 25 22 26 30 19 21 342 278 272 254 245 244 240 239 237 239
240 242 305 313 306 321 321 327 342 346 349 345 343 344 353 3 29 45 32 22 12 9 9 9 7 10 10 12 17 27 34 33 39 33 25 40 68 76 37 341 300 270 247 239 239 238 237 237 236
281 296 300 303 302 307 316 316 312 333 350 338 344 348 355 18 79 70 34 20 12 11 12 10 12 15 15 21 27 31 42 46 38 36 44 54 91 96 78 42 323 281 233 230 232 233 233 232 225
290 284 296 301 289 299 315 314 327 332 334 332 338 333 345 31 91 60 31 21 18 13 12 12 14 18 16 28 32 46 51 39 40 44 65 113 131 125 93 80 37 264 246 222 230 230 229 222 223
259 291 293 311 298 300 299 316 319 322 326 323 328 329 333 1 76 66 44 31 21 15 15 14 17 22 19 38 49 55 56 59 53 62 68 155 179 165 129 135 118 286 246 230 225 228 223 217 220
273 276 290 302 291 305 307 307 318 328 327 327 314 329 330 315 339 81 43 27 24 17 19 18 24 24 28 39 58 56 66 61 55 72 93 155 152 177 163 163 153 154 232 225 220 219 218 217 219
273 294 297 315 317 305 315 314 294 320 323 323 312 326 328 301 54 78 42 39 29 22 24 23 29 30 38 16 30 34 39 51 53 59 111 149 148 149 152 124 240 222 220 218 218 213 212 216 215
246 254 294 304 311 318 284 247 255 316 321 322 319 329 333 349 99 76 40 58 35 26 27 31 37 37 45 35 50 52 49 44 46 65 71 79 123 102 126 164 179 207 214 222 216 213 212 214 215
207 226 280 298 298 321 237 248 255 351 341 342 333 336 346 32 125 80 90 77 49 36 36 36 42 39 39 47 58 57 57 59 57 65 55 78 106 110 231 197 204 199 213 207 215 214 213 211 216
217 236 273 279 310 236 219 319 337 320 356 351 342 339 3 61 107 114 116 95 63 46 49 46 49 41 42 41 62 47 48 52 61 72 77 64 70 104 248 218 218 216 211 203 206 210 216 212 209
218 272 280 272 218 226 226 320 339 360 7 15 0 357 34 61 112 125 122 103 74 58 58 57 60 49 48 45 63 37 43 58 82 68 84 58 86 105 168 254 223 219 220 215 217 217 215 214 204
236 265 225 294 214 225 230 293 333 351 15 11 358 1 10 54 94 116 112 101 85 74 67 68 66 49 60 54 64 59 58 62 70 80 84 67 119 123 142 241 257 240 230 223 219 216 212 211 208
188 221 193 198 203 220 219 312 338 336 358 11 357 342 9 56 104 117 117 108 96 86 76 74 74 52 60 51 60 66 66 54 79 104 115 115 119 222 177 150 228 236 222 206 213 211 211 201 205
200 201 188 200 193 208 50 1 6 10 7 13 14 349 19 73 112 117 114 112 106 95 85 85 80 64 69 49 51 67 64 83 92 97 98 110 144 284 199 212 202 216 201 181 196 191 199 205 199
216 195 193 210 237 241 350 20 357 4 23 55 50 10 52 102 112 114 114 115 113 102 90 89 78 77 78 57 57 71 69 64 79 94 88 68 114 100 359 4 58 222 199 192 193 192 195 198 199
211 230 191 196 213 247 294 356 5 65 76 51 57 40 81 106 105 108 116 117 116 107 96 97 86 85 89 65 72 84 81 83 89 100 96 86 16 16 196 117 102 192 191 176 190 192 202 201 205
203 196 207 269 202 280 322 344 33 59 47 55 65 67 104 111 114 104 117 119 120 110 107 106 102 90 94 75 73 96 82 84 89 90 99 99 91 56 209 188 149 160 174 178 166 176 206 205 203
217 203 212 240 196 275 305 345 37 41 64 99 74 77 116 122 118 112 118 122 123 118 110 110 109 99 103 99 75 95 93 88 99 97 87 104 96 85 38 80 171 154 184 182 168 159 190 170 189